Proserpine Hamilton Isla, Australia

9:50 AM AEST on December 08, 2016 (GMT +1000)
Hamilton Island

Weather History for YBHM - April, 2014

Change the Weather History Date:

Friday, April 18, 2014

  Actual Average Record
Temperature  
Mean Temperature 78 °F -  
Max Temperature 81 °F - - ()
Min Temperature 73 °F - - ()
Cooling Degree Days 12    
Growing Degree Days 28 (Base 50)    
Moisture  
Dew Point 67 °F    
Average Humidity 70    
Maximum Humidity 83    
Minimum Humidity 54    
Precipitation  
Precipitation 0.00 in - - ()
Sea Level Pressure  
Sea Level Pressure 29.99 in    
Wind  
Wind Speed 8 mph ()    
Max Wind Speed 15 mph    
Max Gust Speed -    
Visibility 6.2 miles    
Events      
T = Trace of Precipitation, MM = Missing Value Source: Averaged Metar Reports

Daily Weather History Graph

Daily Weather History Graph

Search for Another Location

Airport or City:

Trip Planner

Search our weather history database for the weather conditions in past years. The results will help you decide how hot, cold, wet, or windy it might be!

Date:

Astronomy

Apr. 18, 2014 Rise Set
Actual Time 6:16 AM AEST 5:50 PM AEST
Civil Twilight 5:53 AM AEST 6:13 PM AEST
Nautical Twilight 5:27 AM AEST 6:39 PM AEST
Astronomical Twilight 5:02 AM AEST 7:04 PM AEST
Moon 8:14 PM AEST (4/18) 8:42 AM AEST (4/18)
Length of Visible Light 12h 19m
Length of Day
11h 34m
Waning Gibbous, 91% of the Moon is Illuminated
Apr 18
Waning Gibbous
Apr 22
Last Quarter
Apr 29
New
May 7
First Quarter
May 15
Full

Hourly Weather History & Observations

Time (AEST) Temp. Heat Index Dew Point Humidity Pressure Visibility Wind Dir Wind Speed Gust Speed Precip Events Conditions
12:00 AM 76 °F - 67 °F 66% 30.03 in - NE 8.1 mph - -  
12:00 AM 77.0 °F - 66.2 °F 69% 30.04 in 6.2 mi NE 8.1 mph - N/A   Scattered Clouds
12:30 AM 75.2 °F - 68.0 °F 78% 30.01 in 6.2 mi ENE 9.2 mph - N/A   Unknown
1:00 AM 75.2 °F - 68.0 °F 78% 30.01 in 6.2 mi ENE 6.9 mph - N/A   Unknown
1:30 AM 75.2 °F - 68.0 °F 78% 30.01 in 6.2 mi NE 6.9 mph - N/A   Scattered Clouds
2:00 AM 75.2 °F - 68.0 °F 78% 29.98 in 6.2 mi NE 5.8 mph - N/A   Unknown
2:30 AM 75.2 °F - 68.0 °F 78% 29.98 in 6.2 mi NE 5.8 mph - N/A   Unknown
3:00 AM 75 °F - 68 °F 73% 29.98 in - Calm Calm - -  
3:00 AM 75.2 °F - 68.0 °F 78% 29.98 in 6.2 mi Calm Calm - N/A   Scattered Clouds
3:30 AM 75.2 °F - 68.0 °F 78% 29.98 in 6.2 mi NNE 1.2 mph - N/A   Overcast
4:00 AM 75.2 °F - 68.0 °F 78% 29.98 in 6.2 mi ENE 11.5 mph - N/A   Scattered Clouds
4:30 AM 75.2 °F - 68.0 °F 78% 29.98 in 6.2 mi ENE 6.9 mph - N/A   Scattered Clouds
5:00 AM 75.2 °F - 66.2 °F 73% 29.98 in 6.2 mi ENE 6.9 mph - N/A   Scattered Clouds
5:30 AM 75.2 °F - 68.0 °F 78% 29.98 in 6.2 mi ENE 9.2 mph - N/A   Unknown
6:00 AM 75 °F - 67 °F 69% 29.99 in - East 9.2 mph - -  
6:00 AM 75.2 °F - 66.2 °F 73% 29.98 in 6.2 mi East 9.2 mph - N/A   Unknown
6:30 AM 75.2 °F - 66.2 °F 73% 30.01 in 6.2 mi East 8.1 mph - N/A   Unknown
7:00 AM 77.0 °F - 68.0 °F 74% 30.01 in 6.2 mi East 5.8 mph - N/A   Unknown
7:30 AM 78.8 °F - 66.2 °F 65% 30.01 in 6.2 mi East 9.2 mph - N/A   Overcast
8:00 AM 78.8 °F - 66.2 °F 65% 30.01 in 6.2 mi East 9.2 mph - N/A   Overcast
8:30 AM 78.8 °F - 69.8 °F 74% 30.01 in 6.2 mi East 10.4 mph - N/A   Mostly Cloudy
9:00 AM 80 °F - 68 °F 59% 30.03 in - East 10.4 mph - -  
9:00 AM 80.6 °F 83.2 °F 68.0 °F 65% 30.01 in 6.2 mi East 10.4 mph - N/A   Scattered Clouds
9:30 AM 80.6 °F 82.7 °F 66.2 °F 61% 30.01 in 6.2 mi East 10.4 mph - N/A   Unknown
10:00 AM 80.6 °F 83.2 °F 68.0 °F 65% 30.01 in 6.2 mi East 10.4 mph - N/A   Scattered Clouds
10:30 AM 80.6 °F 82.7 °F 66.2 °F 61% 30.01 in 6.2 mi East 11.5 mph - N/A   Mostly Cloudy
11:00 AM 80.6 °F 83.2 °F 68.0 °F 65% 30.01 in 6.2 mi East 11.5 mph - N/A   Mostly Cloudy
11:30 AM 80.6 °F 82.7 °F 66.2 °F 61% 30.01 in 6.2 mi East 11.5 mph - N/A   Scattered Clouds
12:00 PM 81 °F - 68 °F 57% 29.99 in - East 10.4 mph - -  
12:00 PM 80.6 °F 83.2 °F 68.0 °F 65% 29.98 in 6.2 mi East 10.4 mph - N/A   Scattered Clouds
12:30 PM 80.6 °F 82.7 °F 66.2 °F 61% 29.98 in 6.2 mi East 11.5 mph - N/A   Scattered Clouds
1:00 PM 80.6 °F 83.2 °F 68.0 °F 65% 29.95 in 6.2 mi East 12.7 mph - N/A   Scattered Clouds
1:30 PM 80.6 °F 83.2 °F 68.0 °F 65% 29.95 in 6.2 mi East 12.7 mph - N/A   Scattered Clouds
2:00 PM 80.6 °F 83.2 °F 68.0 °F 65% 29.95 in 6.2 mi East 12.7 mph - N/A   Scattered Clouds
2:30 PM 78.8 °F - 66.2 °F 65% 29.95 in 6.2 mi East 15.0 mph - N/A   Unknown
3:00 PM 79 °F - 65 °F 54% 29.94 in - East 13.8 mph - -  
3:00 PM 78.8 °F - 64.4 °F 61% 29.95 in 6.2 mi East 13.8 mph - N/A   Unknown
3:30 PM 78.8 °F - 66.2 °F 65% 29.95 in 6.2 mi East 12.7 mph - N/A   Mostly Cloudy
4:00 PM 78.8 °F - 66.2 °F 65% 29.95 in 6.2 mi East 11.5 mph - N/A   Overcast
4:30 PM 78.8 °F - 68.0 °F 69% 29.95 in 6.2 mi East 10.4 mph - N/A   Overcast
5:00 PM 78.8 °F - 66.2 °F 65% 29.95 in 6.2 mi East 11.5 mph - N/A   Overcast
5:30 PM 77.0 °F - 68.0 °F 74% 29.98 in 6.2 mi East 12.7 mph - N/A   Overcast
6:00 PM 77 °F - 67 °F 65% 29.99 in - East 11.5 mph - -  
6:00 PM 77.0 °F - 68.0 °F 74% 29.98 in 6.2 mi East 11.5 mph - N/A   Mostly Cloudy
6:30 PM 77.0 °F - 66.2 °F 69% 29.98 in 6.2 mi East 11.5 mph - N/A   Mostly Cloudy
7:00 PM 77.0 °F - 68.0 °F 74% 29.98 in 6.2 mi ENE 10.4 mph - N/A   Mostly Cloudy
7:30 PM 77.0 °F - 66.2 °F 69% 30.01 in 6.2 mi ENE 10.4 mph - N/A   Scattered Clouds
8:00 PM 77.0 °F - 68.0 °F 74% 30.01 in 6.2 mi ENE 8.1 mph - N/A   Scattered Clouds
8:30 PM 77.0 °F - 66.2 °F 69% 30.01 in 6.2 mi NE 5.8 mph - N/A   Unknown
9:00 PM 76 °F - 66 °F 65% 30.03 in - NE 6.9 mph - -  
9:00 PM 77.0 °F - 66.2 °F 69% 30.04 in 6.2 mi NE 6.9 mph - N/A   Scattered Clouds
9:30 PM 75.2 °F - 66.2 °F 73% 30.04 in 6.2 mi NE 4.6 mph - N/A   Scattered Clouds
10:00 PM 75.2 °F - 66.2 °F 73% 30.04 in 6.2 mi NE 5.8 mph - N/A   Unknown
10:30 PM 75.2 °F - 68.0 °F 78% 30.04 in 6.2 mi NNE 4.6 mph - N/A   Unknown
11:00 PM 75.2 °F - 68.0 °F 78% 30.04 in 6.2 mi North 2.3 mph - N/A   Unknown
11:30 PM 73.4 °F - 68.0 °F 83% 30.04 in 6.2 mi NNW 3.5 mph - N/A   Unknown